Location: Marshall
(39.8477°N, 87.1868°W)
Time: 04:53:14
(UTC+00:00)

HTV-X1 - Pass Details

Date: 22 May 2026
Orbit: 368 x 378 km, 51.6° (Epoch: 26 May)

Event Time Altitude Azimuth Distance (km) Brightness Sun altitude
Rises 02:25:04 0° 315° (NW) 2,218 ? -13.8°
Reaches altitude 10° 02:27:31 10° 335° (NNW) 1,368 ? -14.2°
Maximum altitude 02:29:46 18° 23° (NNE) 982 ? -14.5°
Enters shadow 02:31:46 11° 67° (ENE) 1,301 ? -14.8°
